Back to catalog

IRIDIUM 33 DEB

AlivePO
NORAD 36012·DEBRIS·🇺🇸 United States

Launched Sep 14, 1997 from Baikonur Cosmodrome

Loading…

Next Passes (next 24 hours)

TLE

FreshSource: Space-Track

Epoch: Sep 13, 2026, 19:22 UTC

1 36012U 97051UT  26256.80703615  .00006431  00000-0  22549-2 0  9993
2 36012  86.4408 196.3147 0223023 101.0632 261.5726 14.21905325693908

Track IRIDIUM 33 DEB in real time with AllMySat

Download on the App Store